GW2996 Weather Reports


Display with metric or nautical units.
time (UTC)temp
F
wind
direction
speed
MPH
gust
MPH
rain 1hr
in
rain 24hr
in
rain mn
in
humidity
%
barometer
mb
20260507145810 47 225 12.0 15.0 0.00 0.00 0.00 55 1009.4
20260507145307 48 244 10.0 15.0 0.00 0.00 0.00 55 1009.5
20260507144804 48 239 7.0 16.0 0.00 0.00 0.00 58 1009.5
20260507144301 49 192 14.0 15.0 0.00 0.00 0.00 58 1009.3
20260507143758 48 230 6.0 7.0 0.00 0.00 0.00 60 1009.4
20260507143255 49 238 6.0 15.0 0.00 0.00 0.00 57 1009.5
20260507142752 49 220 7.0 11.0 0.00 0.00 0.00 55 1009.5
20260507142248 48 246 6.0 12.0 0.00 0.00 0.00 59 1009.5
20260507141744 47 302 5.0 11.0 0.00 0.00 0.00 63 1009.5
20260507141241 48 231 4.0 5.0 0.00 0.00 0.00 64 1009.3
20260507140737 48 206 7.0 11.0 0.00 0.00 0.00 60 1009.7
20260507140235 46 233 6.0 11.0 0.00 0.00 0.00 64 1009.6
20260507135732 47 198 14.0 15.0 0.00 0.00 0.00 59 1009.6
20260507135229 47 215 4.0 4.0 0.00 0.00 0.00 66 1009.7
20260507134725 47 233 5.0 12.0 0.00 0.00 0.00 62 1009.6
20260507134222 48 229 3.0 10.0 0.00 0.00 0.00 64 1009.3
20260507133718 47 215 7.0 12.0 0.00 0.00 0.00 64 1009.6
20260507133215 47 224 4.0 6.0 0.00 0.00 0.00 67 1009.4
20260507132712 49 211 3.0 4.0 0.00 0.00 0.00 68 1009.4
20260507132208 46 228 6.0 12.0 0.00 0.00 0.00 67 1009.6
20260507131705 47 214 7.0 9.0 0.00 0.00 0.00 66 1009.3
20260507131203 48 189 4.0 6.0 0.00 0.00 0.00 68 1009.4
20260507130659 47 220 5.0 7.0 0.00 0.00 0.00 68 1009.4
20260507130157 46 248 6.0 10.0 0.00 0.00 0.00 67 1009.4
20260507125656 46 226 5.0 12.0 0.00 0.00 0.00 70 1009.3
20260507125153 48 202 4.0 5.0 0.00 0.00 0.00 71 1009.5
20260507124649 46 185 3.0 10.0 0.00 0.00 0.00 72 1009.1
20260507124147 46 221 8.0 9.0 0.00 0.00 0.00 71 1009.4
20260507123645 46 222 4.0 8.0 0.00 0.00 0.00 76 1009.5
20260507123142 45 212 2.0 4.0 0.00 0.00 0.00 77 1009.4
20260507122637 45 216 4.0 4.0 0.00 0.00 0.00 78 1009.4
20260507122133 45 168 3.0 4.0 0.00 0.00 0.00 78 1009.3
20260507121630 44 210 2.0 5.0 0.00 0.00 0.00 80 1009.3
20260507121126 44 219 7.0 7.0 0.00 0.00 0.00 81 1009.1
20260507120622 45 180 3.0 3.0 0.00 0.00 0.00 82 1009.1
20260507120119 44 200 3.0 5.0 0.00 0.00 0.00 82 1009.1
20260507115615 44 221 5.0 5.0 0.00 0.00 0.00 82 1009.1
20260507115110 44 175 3.0 5.0 0.00 0.00 0.00 84 1008.9
20260507114606 44 240 1.0 3.0 0.00 0.00 0.00 87 1009.0
20260507114104 44 183 0.0 1.0 0.00 0.00 0.00 86 1009.0
20260507113600 44 180 2.0 3.0 0.00 0.00 0.00 86 1008.9
20260507113058 43 127 1.0 2.0 0.00 0.00 0.00 87 1008.9
20260507112556 43 142 1.0 3.0 0.00 0.00 0.00 87 1008.9
20260507112052 43 44 0.0 1.0 0.00 0.00 0.00 88 1009.1
20260507111549 43 142 0.0 0.0 0.00 0.00 0.00 88 1009.0
20260507111046 43 224 0.0 0.0 0.00 0.00 0.00 88 1008.9
20260507110542 43 185 0.0 0.0 0.00 0.00 0.00 88 1008.8
20260507110039 43 185 0.0 0.0 0.00 0.00 0.00 88 1008.8
20260507105536 42 283 0.0 0.0 0.00 0.00 0.00 88 1009.0
20260507105032 42 283 0.0 0.0 0.00 0.00 0.00 88 1008.8
20260507104529 42 283 0.0 0.0 0.00 0.00 0.00 88 1008.8
20260507104026 42 283 0.0 0.0 0.00 0.00 0.00 88 1008.9
20260507103522 42 283 0.0 0.0 0.00 0.00 0.00 88 1009.0
20260507103019 42 283 0.0 0.0 0.00 0.00 0.00 88 1008.9
20260507102515 42 283 0.0 0.0 0.00 0.00 0.00 88 1009.0
20260507102011 42 283 0.0 0.0 0.00 0.00 0.00 88 1008.7
20260507101507 42 240 0.0 2.0 0.00 0.00 0.00 88 1008.6
20260507101005 42 104 0.0 1.0 0.00 0.00 0.00 88 1008.9
20260507100502 42 171 0.0 2.0 0.00 0.00 0.00 88 1008.5
20260507100000 42 228 2.0 2.0 0.00 0.00 0.00 88 1008.7
20260507095457 42 163 2.0 2.0 0.00 0.00 0.00 89 1008.7
20260507094948 42 231 0.0 3.0 0.00 0.00 0.00 90 1008.8
20260507094444 42 157 0.0 0.0 0.00 0.00 0.00 90 1008.8
20260507093941 42 217 0.0 0.0 0.00 0.00 0.00 91 1008.7
20260507093439 42 217 0.0 0.0 0.00 0.00 0.00 91 1008.7
20260507092937 42 217 0.0 0.0 0.00 0.00 0.00 91 1008.6
20260507092433 42 217 0.0 0.0 0.00 0.00 0.00 91 1008.7
20260507091930 42 94 0.0 1.0 0.00 0.00 0.00 91 1008.5
20260507091427 42 193 0.0 1.0 0.00 0.00 0.00 91 1008.3
20260507090922 42 113 0.0 2.0 0.00 0.00 0.00 91 1008.6
20260507090418 41 174 0.0 0.0 0.00 0.00 0.00 91 1008.5
20260507085915 41 257 0.0 0.0 0.00 0.00 0.00 91 1008.5
20260507085412 41 116 0.0 0.0 0.00 0.00 0.00 91 1008.5
20260507084909 41 193 3.0 4.0 0.00 0.00 0.00 91 1008.4
20260507084406 41 135 0.0 2.0 0.00 0.00 0.00 91 1008.4
20260507083903 41 135 1.0 2.0 0.00 0.00 0.00 91 1008.6
20260507083359 41 25 0.0 0.0 0.00 0.00 0.00 91 1008.8
20260507082855 41 185 1.0 2.0 0.00 0.00 0.00 91 1008.5
20260507082351 41 178 2.0 2.0 0.00 0.00 0.00 91 1008.9
20260507081849 41 104 1.0 2.0 0.00 0.00 0.00 91 1008.9
20260507081344 41 119 0.0 1.0 0.00 0.00 0.00 91 1009.1
20260507080841 41 168 0.0 1.0 0.00 0.00 0.00 91 1009.0
20260507080337 40 110 0.0 1.0 0.00 0.00 0.00 91 1008.9
20260507075833 40 55 0.0 0.0 0.00 0.00 0.00 91 1009.0
20260507075329 40 47 1.0 2.0 0.00 0.00 0.00 91 1009.1
20260507074826 40 64 1.0 2.0 0.00 0.00 0.00 91 1009.1
20260507074323 40 154 0.0 2.0 0.00 0.00 0.00 91 1009.3
20260507073820 39 35 1.0 1.0 0.00 0.00 0.00 91 1009.4
20260507073318 39 38 0.0 0.0 0.00 0.00 0.00 91 1009.5
20260507072815 39 345 0.0 0.0 0.00 0.00 0.00 91 1009.3
20260507072312 39 13 0.0 1.0 0.00 0.00 0.00 91 1009.0
20260507071809 40 32 0.0 1.0 0.00 0.00 0.00 91 1008.9
20260507071305 40 33 1.0 2.0 0.00 0.00 0.00 91 1008.8
20260507070802 40 22 1.0 1.0 0.00 0.00 0.00 91 1008.8
20260507070259 40 26 0.0 1.0 0.00 0.00 0.00 91 1008.7
20260507065756 40 22 0.0 1.0 0.00 0.00 0.00 91 1008.7
20260507065253 40 14 2.0 2.0 0.00 0.00 0.00 91 1008.7
20260507064750 41 19 0.0 1.0 0.00 0.00 0.00 91 1008.6
20260507064249 40 19 1.0 2.0 0.00 0.00 0.00 91 1008.8
20260507063746 41 49 1.0 2.0 0.00 0.00 0.00 91 1008.9
20260507063242 40 51 2.0 2.0 0.00 0.00 0.00 91 1008.8
20260507062740 40 31 0.0 1.0 0.00 0.00 0.00 91 1008.9
20260507062237 40 304 0.0 0.0 0.00 0.00 0.00 91 1008.9
20260507061735 40 304 0.0 0.0 0.00 0.00 0.00 91 1008.9
20260507061232 40 326 0.0 0.0 0.00 0.00 0.00 91 1008.8
20260507060730 40 13 0.0 0.0 0.00 0.00 0.00 91 1008.9
20260507060227 40 13 0.0 0.0 0.00 0.00 0.00 91 1008.7
20260507055723 41 26 2.0 2.0 0.00 0.00 0.00 91 1008.9
20260507055218 41 26 2.0 2.0 0.00 0.00 0.00 91 1008.9
20260507054715 41 4 1.0 1.0 0.00 0.00 0.00 91 1009.0
20260507054212 41 4 1.0 1.0 0.00 0.00 0.00 91 1009.4
20260507053709 41 130 0.0 0.0 0.00 0.00 0.00 91 1009.4
20260507053207 41 130 0.0 0.0 0.00 0.00 0.00 91 1009.4
20260507052706 41 135 0.0 0.0 0.00 0.00 0.00 91 1009.3
20260507052201 41 55 0.0 0.0 0.00 0.00 0.00 91 1009.4
20260507051659 41 22 0.0 0.0 0.00 0.00 0.00 91 1009.5
20260507051155 41 30 0.0 0.0 0.00 0.00 0.00 91 1009.5
20260507050652 41 66 0.0 0.0 0.00 0.00 0.00 91 1009.8
20260507050149 41 22 0.0 0.0 0.00 0.00 0.00 91 1009.8
20260507045646 41 22 0.0 0.0 0.00 0.00 0.00 91 1009.8
20260507045143 41 22 0.0 0.0 0.00 0.00 0.00 91 1009.7
20260507044640 41 49 0.0 0.0 0.00 0.00 0.00 91 1009.8
20260507044137 41 49 0.0 0.0 0.00 0.00 0.00 91 1010.1
20260507043633 41 49 0.0 0.0 0.00 0.00 0.00 91 1010.0
20260507043130 41 49 0.0 0.0 0.00 0.00 0.00 91 1010.1
20260507042626 41 55 0.0 0.0 0.00 0.00 0.00 91 1010.3
20260507042121 42 19 0.0 0.0 0.00 0.00 0.00 91 1010.1
20260507041618 42 19 0.0 0.0 0.00 0.00 0.00 91 1010.1
20260507041115 42 19 0.0 0.0 0.00 0.00 0.00 91 1010.4
20260507040612 42 19 0.0 0.0 0.00 0.00 0.00 91 1010.2
20260507040108 42 19 0.0 0.0 0.00 0.69 0.69 91 1010.1
20260507035604 42 19 0.0 0.0 0.00 0.69 0.69 91 1010.1
20260507035100 42 11 2.0 2.0 0.00 0.69 0.69 90 1010.0
20260507034557 43 25 1.0 1.0 0.00 0.69 0.69 90 1010.1
20260507034055 43 25 1.0 1.0 0.00 0.69 0.69 90 1010.3
20260507033553 43 25 1.0 1.0 0.00 0.69 0.69 90 1010.2
20260507033050 43 25 1.0 1.0 0.00 0.69 0.69 90 1010.2
20260507032547 43 22 0.0 0.0 0.00 0.69 0.69 90 1010.1
20260507032043 43 22 0.0 0.0 0.00 0.69 0.69 90 1010.3
20260507031540 43 55 0.0 0.0 0.00 0.69 0.69 90 1010.3
20260507031037 43 55 0.0 0.0 0.00 0.69 0.69 90 1010.0
20260507030534 43 55 0.0 1.0 0.00 0.69 0.69 90 1010.2
20260507030032 44 93 0.0 1.0 0.00 0.69 0.69 90 1010.0
20260507025528 44 102 1.0 2.0 0.00 0.69 0.69 90 1010.1
20260507025026 44 60 0.0 0.0 0.00 0.69 0.69 90 1010.4
20260507024523 44 66 0.0 0.0 0.00 0.69 0.69 90 1010.5
20260507024020 44 44 0.0 0.0 0.00 0.69 0.69 90 1010.4
20260507023516 44 44 0.0 0.0 0.00 0.69 0.69 90 1010.4
20260507023014 44 44 0.0 0.0 0.00 0.69 0.69 90 1010.3
20260507022510 44 212 0.0 0.0 0.00 0.69 0.69 90 1010.4
20260507022000 44 212 0.0 0.0 0.00 0.69 0.69 90 1010.4
20260507021456 44 212 0.0 0.0 0.00 0.69 0.69 90 1010.3
20260507020953 44 212 0.0 0.0 0.00 0.69 0.69 90 1010.2
20260507020450 44 212 0.0 0.0 0.00 0.69 0.69 90 1009.9
20260507015947 44 212 0.0 0.0 0.00 0.69 0.69 90 1009.9
20260507015446 44 212 0.0 0.0 0.00 0.69 0.69 90 1010.0
20260507014942 44 212 0.0 0.0 0.00 0.69 0.69 90 1010.1
20260507014439 44 212 0.0 0.0 0.00 0.69 0.69 90 1010.4
20260507013935 44 212 0.0 0.0 0.00 0.69 0.69 90 1010.4
20260507013432 44 32 0.0 1.0 0.00 0.69 0.69 90 1010.8
20260507012929 44 32 0.0 1.0 0.00 0.69 0.69 90 1010.7
20260507012426 44 32 0.0 1.0 0.00 0.69 0.69 90 1010.6
20260507011922 44 32 0.0 1.0 0.00 0.69 0.69 90 1010.2
20260507011419 44 69 0.0 0.0 0.00 0.69 0.69 90 1010.5
20260507010914 44 69 0.0 0.0 0.00 0.69 0.69 90 1010.2
20260507010409 44 119 0.0 0.0 0.00 0.69 0.69 90 1010.1
20260507005907 44 32 0.0 0.0 0.00 0.69 0.69 89 1010.1
20260507005403 44 32 0.0 0.0 0.00 0.69 0.69 89 1009.7
20260507004900 44 32 0.0 0.0 0.00 0.69 0.69 89 1009.8
20260507004357 44 32 0.0 0.0 0.00 0.69 0.69 89 1009.9
20260507003854 44 53 1.0 2.0 0.00 0.69 0.69 89 1009.7
20260507003350 44 147 0.0 0.0 0.00 0.69 0.69 89 1009.9
20260507002845 44 38 0.0 0.0 0.00 0.69 0.69 89 1009.9
20260507002341 44 38 0.0 0.0 0.00 0.69 0.69 89 1009.8
20260507001839 44 203 0.0 0.0 0.00 0.69 0.69 89 1009.4
20260507001335 44 203 0.0 0.0 0.00 0.69 0.69 89 1009.4
20260507000832 44 14 0.0 0.0 0.00 0.69 0.69 89 1009.5
20260507000328 44 38 0.0 0.0 0.00 0.69 0.69 89 1009.5
20260506235824 45 0 0.0 0.0 0.00 0.69 0.69 88 1009.1
20260506235320 44 0 0.0 1.0 0.00 0.69 0.69 88 1009.3
20260506234817 45 29 0.0 0.0 0.00 0.69 0.69 88 1009.1
20260506234315 45 76 0.0 0.0 0.00 0.69 0.69 88 1008.9
20260506233812 45 32 0.0 0.0 0.00 0.69 0.69 88 1008.9
20260506233308 45 32 0.0 0.0 0.00 0.69 0.69 88 1009.1
20260506232805 45 44 0.0 0.0 0.00 0.69 0.69 87 1008.7
20260506232300 45 44 0.0 0.0 0.00 0.69 0.69 87 1008.6
20260506231757 45 44 0.0 0.0 0.00 0.69 0.69 87 1008.6
20260506231255 45 44 0.0 0.0 0.00 0.69 0.69 87 1008.6
20260506230752 45 228 0.0 0.0 0.00 0.69 0.69 86 1009.0
20260506230248 45 49 0.0 0.0 0.00 0.69 0.69 87 1008.8
20260506225745 45 124 0.0 0.0 0.00 0.69 0.69 87 1008.8
20260506225242 45 66 0.0 1.0 0.00 0.69 0.69 88 1008.7
20260506224738 45 173 0.0 1.0 0.00 0.69 0.69 88 1009.3
20260506224236 45 353 0.0 0.0 0.00 0.69 0.69 88 1009.0
20260506223732 45 236 2.0 2.0 0.00 0.69 0.69 88 1009.1
20260506223227 45 14 0.0 1.0 0.00 0.69 0.69 88 1009.0
20260506222725 45 256 0.0 0.0 0.00 0.69 0.69 88 1009.4
20260506222220 45 209 0.0 0.0 0.00 0.69 0.69 88 1008.8
20260506221718 45 350 1.0 2.0 0.00 0.69 0.69 88 1009.1
20260506221216 45 22 0.0 1.0 0.00 0.69 0.69 88 1009.1
20260506220713 45 32 0.0 2.0 0.00 0.69 0.69 88 1008.9
20260506220208 45 7 2.0 2.0 0.00 0.69 0.69 87 1008.8
20260506215705 45 299 0.0 3.0 0.00 0.69 0.69 88 1009.0
20260506215200 45 327 0.0 3.0 0.00 0.69 0.69 88 1009.1
20260506214657 45 54 0.0 3.0 0.00 0.69 0.69 88 1008.9
20260506214154 45 1 2.0 2.0 0.00 0.69 0.69 88 1009.0
20260506213653 45 113 0.0 2.0 0.00 0.69 0.69 88 1009.1
20260506213150 45 10 3.0 4.0 0.00 0.69 0.69 88 1008.7
20260506212647 45 344 2.0 3.0 0.00 0.69 0.69 88 1008.9
20260506212142 45 47 2.0 3.0 0.02 0.69 0.69 88 1008.9
20260506211638 45 0 3.0 3.0 0.02 0.69 0.69 88 1009.0
20260506211134 45 40 1.0 2.0 0.00 0.69 0.69 88 1009.1
20260506210631 45 326 0.0 2.0 0.00 0.69 0.69 88 1009.0
20260506210128 45 320 0.0 3.0 0.00 0.69 0.69 88 1009.1
20260506205625 45 44 0.0 2.0 0.00 0.69 0.69 88 1009.1
20260506205119 46 315 1.0 2.0 0.02 0.69 0.69 88 1009.1
20260506204618 46 176 0.0 2.0 0.02 0.69 0.69 88 1009.1
20260506204115 46 5 1.0 3.0 0.00 0.68 0.68 88 1009.0
20260506203613 45 261 1.0 3.0 0.00 0.68 0.68 88 1008.8
20260506203109 45 1 2.0 4.0 0.02 0.68 0.68 88 1008.7
20260506202607 45 341 1.0 2.0 0.02 0.68 0.68 88 1008.8
20260506202103 46 13 1.0 2.0 0.02 0.68 0.68 88 1008.8
20260506201601 45 22 1.0 5.0 0.02 0.67 0.67 88 1009.1
20260506201057 45 342 2.0 4.0 0.02 0.67 0.67 87 1008.7
20260506200554 46 342 4.0 7.0 0.00 0.67 0.67 87 1008.9
20260506200050 46 8 0.0 2.0 0.00 0.67 0.67 87 1008.6
20260506195547 46 335 1.0 2.0 0.00 0.67 0.67 86 1008.9
20260506195043 46 343 2.0 4.0 0.00 0.67 0.67 87 1008.6
20260506194541 46 21 2.0 3.0 0.02 0.67 0.67 87 1008.8
20260506194037 46 0 2.0 4.0 0.02 0.67 0.67 87 1008.6
20260506193535 46 265 2.0 5.0 0.00 0.67 0.67 87 1008.7
20260506193032 46 351 1.0 5.0 0.00 0.67 0.67 87 1008.7
20260506192529 46 16 2.0 5.0 0.00 0.67 0.67 87 1008.6
20260506192024 46 265 1.0 3.0 0.00 0.67 0.67 87 1008.6
20260506191521 46 354 4.0 4.0 0.00 0.67 0.67 86 1008.5
20260506191017 46 0 3.0 3.0 0.00 0.67 0.67 87 1008.8
20260506190515 46 15 3.0 3.0 0.00 0.67 0.67 88 1008.7
20260506190012 46 3 2.0 3.0 0.00 0.67 0.67 87 1008.8
20260506185509 46 3 3.0 3.0 0.00 0.67 0.67 87 1008.9
20260506185005 46 0 0.0 3.0 0.00 0.67 0.67 88 1008.9
20260506184503 46 352 3.0 3.0 0.00 0.67 0.67 87 1008.8
20260506183954 45 322 2.0 3.0 0.00 0.67 0.67 88 1009.1
20260506183449 45 265 2.0 2.0 0.00 0.67 0.67 88 1009.0
20260506182946 45 343 2.0 3.0 0.02 0.67 0.67 88 1009.0
20260506182444 45 14 0.0 4.0 0.02 0.67 0.67 88 1009.1
20260506181941 45 354 1.0 2.0 0.00 0.66 0.66 88 1009.4
20260506181439 45 349 1.0 4.0 0.00 0.66 0.66 88 1009.1
20260506180930 44 335 1.0 4.0 0.00 0.66 0.66 87 1009.4
20260506180426 45 173 0.0 3.0 0.02 0.66 0.66 88 1009.5
20260506175923 45 23 2.0 3.0 0.00 0.66 0.66 88 1009.6
20260506175420 44 311 0.0 3.0 0.02 0.66 0.66 88 1009.7
20260506174917 45 45 1.0 2.0 0.05 0.66 0.66 88 1009.8
20260506174414 45 62 1.0 4.0 0.05 0.65 0.65 88 1009.8
20260506173912 45 7 3.0 3.0 0.02 0.65 0.65 88 1009.6
20260506173408 45 224 0.0 2.0 0.02 0.65 0.65 88 1009.8
20260506172906 44 347 1.0 3.0 0.02 0.65 0.65 88 1009.7
20260506172402 44 2 3.0 4.0 0.02 0.64 0.64 88 1009.5
20260506171859 45 10 4.0 5.0 0.02 0.64 0.64 88 1009.7
20260506171356 44 1 0.0 3.0 0.05 0.64 0.64 88 1009.6
20260506170853 44 17 2.0 3.0 0.05 0.63 0.63 89 1010.0
20260506170349 44 12 2.0 2.0 0.07 0.63 0.63 89 1010.0
20260506165844 44 16 2.0 4.0 0.07 0.62 0.62 89 1010.1
20260506165341 44 352 3.0 3.0 0.07 0.61 0.61 89 1010.2
20260506164837 44 355 2.0 4.0 0.07 0.60 0.60 89 1010.1
20260506164334 44 336 1.0 3.0 0.07 0.59 0.59 89 1010.1
20260506163832 44 15 2.0 4.0 0.07 0.59 0.59 89 1009.9
20260506163326 44 1 1.0 3.0 0.09 0.58 0.58 89 1010.1
20260506162821 44 37 2.0 4.0 0.09 0.57 0.57 89 1009.9
20260506162319 44 346 3.0 5.0 0.12 0.57 0.57 89 1010.3
20260506161816 44 331 4.0 5.0 0.07 0.56 0.56 89 1010.2
20260506161314 44 3 4.0 4.0 0.07 0.55 0.55 89 1010.4
20260506160812 44 14 2.0 3.0 0.07 0.54 0.54 89 1010.3
20260506160308 44 346 4.0 4.0 0.07 0.53 0.53 89 1010.6
20260506155807 44 303 1.0 4.0 0.09 0.53 0.53 89 1010.4
20260506155306 44 347 1.0 5.0 0.09 0.52 0.52 89 1010.5
20260506153415 44 126 0.0 2.0 0.12 0.48 0.48 89 1010.8
20260506152913 43 210 0.0 4.0 0.09 0.48 0.48 89 1010.4
20260506152409 44 343 0.0 4.0 0.07 0.47 0.47 89 1010.3
20260506151908 43 344 1.0 5.0 0.05 0.46 0.46 89 1010.3
20260506151404 44 5 2.0 3.0 0.05 0.45 0.45 89 1010.4
20260506150902 44 359 2.0 4.0 0.05 0.45 0.45 89 1010.5
20260506150358 44 29 0.0 5.0 0.07 0.45 0.45 89 1010.4